Location: Harwich
(41.7160°N, 69.9939°W)
Time: 23:22:31
(UTC+02:00)

Transit 2A - Visible Passes

Search period start: 30 May 2024 00:00
Search period end: 09 June 2024 00:00
Orbit: 593 x 958 km, 66.7° (Epoch: 30 May)

Date Brightness Start Highest point End Pass type
(mag) Time Alt. Az. Time Alt. Az. Time Alt. Az.
30 May 6.7 03:50:10 10° SW 03:54:43 52° NW 03:59:46 10° NNE visible
30 May 9.2 05:38:04 10° NW 05:39:14 11° NNW 05:40:26 10° NNW visible
31 May 5.9 03:14:50 10° SSW 03:19:28 80° WNW 03:24:38 10° NNE visible
31 May 8.9 05:00:56 10° WNW 05:03:36 14° NW 05:06:25 10° N visible
31 May 9.2 10:17:41 10° N 10:21:55 20° NE 10:26:18 10° E visible
01 Jun 5.8 02:39:44 10° SSW 02:44:19 67° ESE 02:49:24 10° NE visible
01 Jun 8.7 04:24:33 10° W 04:28:02 19° NW 04:31:47 10° N visible
01 Jun 9.4 09:43:00 10° N 09:46:21 15° NE 09:49:46 10° ENE visible
02 Jun 8.2 03:48:31 10° WSW 03:52:33 26° NW 03:56:57 10° N visible
02 Jun 9.7 09:08:45 10° NNE 09:10:42 12° NNE 09:12:41 10° NE visible
03 Jun 7.6 03:12:45 10° WSW 03:17:08 37° NW 03:21:59 10° NNE visible
03 Jun 8.4 10:14:33 10° NNW 10:19:58 34° NE 10:25:37 10° ESE visible
04 Jun 6.8 02:37:12 10° SW 02:41:49 54° NW 02:46:57 10° NNE visible
04 Jun 9.5 04:24:49 10° NW 04:26:19 11° NNW 04:27:51 10° NNW visible
04 Jun 8.8 09:39:37 10° N 09:44:32 26° NE 09:49:38 10° E visible
05 Jun 9.3 03:47:52 10° WNW 03:50:41 15° NW 03:53:40 10° N visible
05 Jun 9.2 09:04:47 10° N 09:09:02 20° NE 09:13:26 10° E visible
06 Jun 9.0 03:11:31 10° W 03:15:07 20° NW 03:18:58 10° N visible
06 Jun 9.4 08:30:07 10° N 08:33:27 15° NE 08:36:52 10° ENE visible
06 Jun 7.1 10:11:45 10° NNW 10:17:45 63° ENE 10:24:02 10° SE visible
07 Jun 9.5 07:55:49 10° NNE 07:57:48 12° NNE 07:59:48 10° NE visible
07 Jun 7.6 09:36:39 10° NNW 09:42:27 45° NE 09:48:30 10° SE visible
08 Jun 8.2 09:01:39 10° NNW 09:07:05 34° NE 09:12:45 10° ESE visible
